When you browse on this site, cookies collect data to enhance your experience and personalize the content and advertising you see.
Visit our Privacy Policy to learn more. By continuing to use the site, you agree to this use of cookies and data.
  • în România
  • Lista ţărilor
  • Pe 7 zile
  • Temperatura apei
  • Meteo pe hartă
  • Widget-uri
  • user-avatar
    Intrare

    Meteo pe oră la Thimphu

    Astăzi, 28 Februarie, Vineri

    Timp Temperatura Precipitaţii Vânt Presiune Umiditate
    00:00 -3°C° 0 mm 2 m/s 521 mmHg 71%
    01:00 -4°C° 0 mm 3 m/s 520 mmHg 67%
    02:00 -4°C° 0 mm 3 m/s 520 mmHg 62%
    03:00 -5°C° 0 mm 3 m/s 519 mmHg 58%
    04:00 -5°C° 0 mm 3 m/s 519 mmHg 54%
    05:00 -5°C° 0 mm 3 m/s 520 mmHg 50%
    06:00 -5°C° 0 mm 3 m/s 520 mmHg 43%
    07:00 -1°C° 0 mm 2 m/s 522 mmHg 37%
    08:00 +3°C° 0 mm 2 m/s 524 mmHg 32%
    09:00 +7°C° 0 mm 1 m/s 527 mmHg 26%
    10:00 +9°C° 0 mm 1 m/s 527 mmHg 24%
    11:00 +9°C° 0 mm 2 m/s 528 mmHg 22%
    12:00 +12°C° 0 mm 2 m/s 529 mmHg 20%
    13:00 +12°C° 0 mm 2 m/s 528 mmHg 24%
    14:00 +10°C° 0 mm 2 m/s 527 mmHg 29%
    15:00 +10°C° 0 mm 2 m/s 526 mmHg 33%
    16:00 +7°C° 0 mm 2 m/s 524 mmHg 52%
    17:00 +6°C° 0 mm 1 m/s 523 mmHg 70%
    18:00 +2°C° 0 mm 0 m/s 521 mmHg 90%
    19:00 +2°C° 0 mm 1 m/s 521 mmHg 88%
    20:00 +2°C° 0 mm 1 m/s 521 mmHg 86%
    21:00 +1°C° 0 mm 1 m/s 522 mmHg 84%
    22:00 +1°C° 0 mm 1 m/s 521 mmHg 83%
    23:00 +1°C° 0 mm 1 m/s 521 mmHg 82%

    Mâine, 29 Februarie, Sâmbătă

    Timp Temperatura Precipitaţii Vânt Presiune Umiditate
    00:00 +1°C° 0 mm 1 m/s 521 mmHg 80%
    01:00 +1°C° 0 mm 1 m/s 520 mmHg 79%
    02:00 0°C° 0 mm 1 m/s 520 mmHg 77%
    03:00 -2°C° 0 mm 2 m/s 519 mmHg 75%
    04:00 -2°C° 0 mm 2 m/s 519 mmHg 72%
    05:00 -3°C° 0 mm 2 m/s 519 mmHg 69%
    06:00 -3°C° 0 mm 2 m/s 519 mmHg 66%
    07:00 +2°C° 0 mm 1 m/s 521 mmHg 57%
    08:00 +5°C° 0 mm 1 m/s 523 mmHg 49%
    09:00 +8°C° 0 mm 1 m/s 525 mmHg 40%
    10:00 +9°C° 0 mm 1 m/s 526 mmHg 37%
    11:00 +9°C° 0 mm 2 m/s 526 mmHg 33%
    12:00 +12°C° 0 mm 2 m/s 527 mmHg 30%
    13:00 +10°C° 0 mm 3 m/s 526 mmHg 37%
    14:00 +9°C° 0 mm 3 m/s 525 mmHg 44%
    15:00 +9°C° 0 mm 3 m/s 524 mmHg 51%
    16:00 +7°C° 0.3 mm 2 m/s 523 mmHg 64%
    17:00 +5°C° 0.3 mm 2 m/s 522 mmHg 78%
    18:00 +4°C° 0.3 mm 1 m/s 521 mmHg 91%
    19:00 +3°C° 0.2 mm 1 m/s 521 mmHg 92%
    20:00 +2°C° 0.2 mm 1 m/s 521 mmHg 92%
    21:00 +2°C° 0.2 mm 1 m/s 521 mmHg 92%
    22:00 +1°C° 0 mm 1 m/s 521 mmHg 90%
    23:00 +1°C° 0 mm 1 m/s 521 mmHg 87%

    Poimâine, 1 Martie, Duminică

    Timp Temperatura Precipitaţii Vânt Presiune Umiditate
    00:00 +1°C° 0 mm 1 m/s 521 mmHg 85%
    01:00 0°C° 0 mm 1 m/s 520 mmHg 83%
    02:00 0°C° 0 mm 1 m/s 520 mmHg 81%
    03:00 0°C° 0 mm 1 m/s 519 mmHg 79%
    04:00 0°C° 0 mm 1 m/s 519 mmHg 77%
    05:00 -1°C° 0 mm 1 m/s 519 mmHg 76%
    06:00 -1°C° 0 mm 1 m/s 519 mmHg 74%
    07:00 +2°C° 0 mm 1 m/s 521 mmHg 67%
    08:00 +4°C° 0 mm 1 m/s 523 mmHg 60%
    09:00 +7°C° 0 mm 1 m/s 525 mmHg 53%
    10:00 +8°C° 0.1 mm 1 m/s 525 mmHg 53%
    11:00 +8°C° 0.1 mm 2 m/s 525 mmHg 52%
    12:00 +9°C° 0.1 mm 2 m/s 525 mmHg 51%
    13:00 +8°C° 0.5 mm 2 m/s 524 mmHg 56%
    14:00 +8°C° 0.5 mm 2 m/s 523 mmHg 62%
    15:00 +7°C° 0.5 mm 3 m/s 523 mmHg 67%
    16:00 +5°C° 0.6 mm 2 m/s 521 mmHg 75%
    17:00 +4°C° 0.6 mm 2 m/s 520 mmHg 84%
    18:00 +3°C° 0.6 mm 1 m/s 519 mmHg 93%
    19:00 +3°C° 0.3 mm 1 m/s 520 mmHg 93%
    20:00 +2°C° 0.3 mm 1 m/s 520 mmHg 94%
    21:00 +1°C° 0.3 mm 1 m/s 520 mmHg 95%
    22:00 +1°C° 0.2 mm 1 m/s 520 mmHg 94%
    23:00 0°C° 0.2 mm 0 m/s 520 mmHg 93%

    2 Martie, Luni

    Timp Temperatura Precipitaţii Vânt Presiune Umiditate
    00:00 0°C° 0.2 mm 0 m/s 520 mmHg 92%
    01:00 0°C° 0.1 mm 0 m/s 519 mmHg 92%
    02:00 0°C° 0.1 mm 0 m/s 519 mmHg 92%
    03:00 0°C° 0.1 mm 0 m/s 519 mmHg 92%
    04:00 -1°C° 0.1 mm 0 m/s 518 mmHg 92%
    05:00 -1°C° 0.1 mm 0 m/s 518 mmHg 92%
    06:00 -1°C° 0.1 mm 0 m/s 518 mmHg 92%
    07:00 +1°C° 0 mm 0 m/s 520 mmHg 87%
    08:00 +3°C° 0 mm 1 m/s 521 mmHg 81%
    09:00 +5°C° 0 mm 1 m/s 522 mmHg 75%
    10:00 +5°C° 0.4 mm 1 m/s 522 mmHg 75%
    11:00 +5°C° 0.4 mm 2 m/s 522 mmHg 75%
    12:00 +6°C° 0.4 mm 2 m/s 522 mmHg 74%
    13:00 +5°C° 0.7 mm 2 m/s 522 mmHg 76%
    14:00 +5°C° 0.7 mm 2 m/s 521 mmHg 79%
    15:00 +5°C° 0.7 mm 2 m/s 520 mmHg 81%
    16:00 +4°C° 0.6 mm 2 m/s 520 mmHg 86%
    17:00 +4°C° 0.6 mm 1 m/s 519 mmHg 91%
    18:00 +2°C° 0.6 mm 1 m/s 518 mmHg 96%
    19:00 +2°C° 0.2 mm 1 m/s 518 mmHg 95%
    20:00 +1°C° 0.2 mm 1 m/s 519 mmHg 95%
    21:00 0°C° 0.2 mm 0 m/s 519 mmHg 95%
    22:00 +1°C° 0.1 mm 1 m/s 519 mmHg 93%
    23:00 0°C° 0.1 mm 1 m/s 518 mmHg 91%

    3 Martie, Marţi

    Timp Temperatura Precipitaţii Vânt Presiune Umiditate
    00:00 0°C° 0.1 mm 1 m/s 518 mmHg 89%
    01:00 0°C° 0 mm 1 m/s 518 mmHg 87%
    02:00 0°C° 0 mm 1 m/s 518 mmHg 86%
    03:00 -1°C° 0 mm 1 m/s 517 mmHg 84%
    04:00 -1°C° 0 mm 1 m/s 517 mmHg 84%
    05:00 -1°C° 0 mm 1 m/s 517 mmHg 83%
    06:00 -1°C° 0 mm 1 m/s 517 mmHg 83%
    07:00 +1°C° 0 mm 1 m/s 519 mmHg 77%
    08:00 +4°C° 0 mm 1 m/s 521 mmHg 71%
    09:00 +6°C° 0 mm 1 m/s 523 mmHg 65%
    10:00 +6°C° 0.2 mm 1 m/s 523 mmHg 65%
    11:00 +7°C° 0.2 mm 1 m/s 523 mmHg 65%
    12:00 +7°C° 0.2 mm 2 m/s 523 mmHg 66%
    13:00 +6°C° 0.6 mm 2 m/s 522 mmHg 70%
    14:00 +6°C° 0.6 mm 2 m/s 521 mmHg 75%
    15:00 +6°C° 0.6 mm 2 m/s 520 mmHg 79%
    16:00 +4°C° 0.4 mm 2 m/s 520 mmHg 84%
    17:00 +4°C° 0.4 mm 1 m/s 519 mmHg 89%
    18:00 +3°C° 0.4 mm 1 m/s 518 mmHg 94%
    19:00 +3°C° 0.3 mm 1 m/s 519 mmHg 94%
    20:00 +2°C° 0.3 mm 1 m/s 519 mmHg 94%
    21:00 +1°C° 0.3 mm 0 m/s 519 mmHg 95%
    22:00 +1°C° 0.3 mm 0 m/s 519 mmHg 94%
    23:00 +1°C° 0.3 mm 1 m/s 519 mmHg 93%

    4 Martie, Miercuri

    Timp Temperatura Precipitaţii Vânt Presiune Umiditate
    00:00 +1°C° 0.3 mm 1 m/s 519 mmHg 92%
    01:00 +1°C° 0.2 mm 1 m/s 518 mmHg 92%
    02:00 +1°C° 0.2 mm 1 m/s 518 mmHg 92%
    03:00 0°C° 0.2 mm 1 m/s 518 mmHg 92%
    04:00 0°C° 0.1 mm 1 m/s 518 mmHg 92%
    05:00 0°C° 0.1 mm 1 m/s 518 mmHg 91%
    06:00 0°C° 0.1 mm 1 m/s 518 mmHg 91%
    07:00 +1°C° 0 mm 1 m/s 519 mmHg 86%
    08:00 +3°C° 0 mm 1 m/s 521 mmHg 81%
    09:00 +5°C° 0 mm 1 m/s 522 mmHg 76%
    10:00 +6°C° 0.3 mm 1 m/s 522 mmHg 74%
    11:00 +6°C° 0.3 mm 2 m/s 522 mmHg 71%
    12:00 +6°C° 0.3 mm 2 m/s 523 mmHg 68%
    13:00 +5°C° 0.6 mm 3 m/s 522 mmHg 70%
    14:00 +5°C° 0.6 mm 3 m/s 521 mmHg 71%
    15:00 +5°C° 0.6 mm 3 m/s 520 mmHg 73%
    16:00 +4°C° 0.5 mm 2 m/s 520 mmHg 80%
    17:00 +2°C° 0.5 mm 2 m/s 519 mmHg 87%
    18:00 +2°C° 0.5 mm 1 m/s 518 mmHg 95%
    19:00 +2°C° 0.4 mm 1 m/s 518 mmHg 95%
    20:00 +1°C° 0.4 mm 1 m/s 519 mmHg 94%
    21:00 +1°C° 0.4 mm 1 m/s 519 mmHg 94%
    22:00 +1°C° 0 mm 1 m/s 519 mmHg 94%
    23:00 0°C° 0 mm 1 m/s 519 mmHg 93%
    Arată mai mult